TimeCST,TemperatureF,Dew PointF,Humidity,Sea Level PressureIn,VisibilityMPH,Wind Direction,Wind SpeedMPH,Gust SpeedMPH,PrecipitationIn,Events,Conditions,WindDirDegrees,DateUTC
12:15 AM,12.2,3.2,67,29.95,10.0,Calm,Calm,-,N/A,,Clear,0,2012-12-11 06:15:00
12:35 AM,12.2,3.2,67,29.94,10.0,Calm,Calm,-,N/A,,Clear,0,2012-12-11 06:35:00
12:55 AM,12.2,3.2,67,29.93,10.0,Calm,Calm,-,N/A,,Clear,0,2012-12-11 06:55:00
1:15 AM,12.2,3.2,67,29.94,10.0,Calm,Calm,-,N/A,,Clear,0,2012-12-11 07:15:00
1:35 AM,14.0,6.8,73,29.93,10.0,South,4.6,-,N/A,,Scattered Clouds,170,2012-12-11 07:35:00
1:55 AM,15.8,6.8,68,29.94,10.0,Calm,Calm,-,N/A,,Mostly Cloudy,0,2012-12-11 07:55:00
2:15 AM,12.2,5.0,73,29.94,10.0,Calm,Calm,-,N/A,,Scattered Clouds,0,2012-12-11 08:15:00
2:35 AM,12.2,5.0,73,29.95,10.0,Calm,Calm,-,N/A,,Clear,0,2012-12-11 08:35:00
2:55 AM,15.8,6.8,68,29.95,10.0,South,3.5,-,N/A,,Mostly Cloudy,190,2012-12-11 08:55:00
3:15 AM,17.6,8.6,68,29.95,10.0,SSW,3.5,-,N/A,,Overcast,210,2012-12-11 09:15:00
3:35 AM,19.4,8.6,63,29.95,10.0,Calm,Calm,-,N/A,,Overcast,0,2012-12-11 09:35:00
3:55 AM,19.4,8.6,63,29.95,10.0,Calm,Calm,-,N/A,,Overcast,0,2012-12-11 09:55:00
4:15 AM,19.4,8.6,63,29.95,10.0,Calm,Calm,-,N/A,,Mostly Cloudy,0,2012-12-11 10:15:00
4:35 AM,19.4,8.6,63,29.95,10.0,Calm,Calm,-,N/A,,Mostly Cloudy,0,2012-12-11 10:35:00
4:55 AM,19.4,6.8,58,29.95,10.0,Calm,Calm,-,N/A,,Scattered Clouds,0,2012-12-11 10:55:00
5:15 AM,17.6,6.8,63,29.96,10.0,Calm,Calm,-,N/A,,Clear,0,2012-12-11 11:15:00
5:35 AM,17.6,8.6,68,29.97,10.0,South,3.5,-,N/A,,Scattered Clouds,190,2012-12-11 11:35:00
5:55 AM,19.4,8.6,63,29.97,10.0,Calm,Calm,-,N/A,,Overcast,0,2012-12-11 11:55:00
6:15 AM,19.4,10.4,68,29.98,10.0,Calm,Calm,-,N/A,,Overcast,0,2012-12-11 12:15:00
6:35 AM,21.2,10.4,63,29.98,10.0,Calm,Calm,-,N/A,,Mostly Cloudy,0,2012-12-11 12:35:00
6:55 AM,19.4,10.4,68,29.99,10.0,Calm,Calm,-,N/A,,Mostly Cloudy,0,2012-12-11 12:55:00
7:15 AM,19.4,8.6,63,30.00,10.0,Calm,Calm,-,N/A,,Scattered Clouds,0,2012-12-11 13:15:00
7:35 AM,17.6,8.6,68,30.01,10.0,South,3.5,-,N/A,,Clear,180,2012-12-11 13:35:00
8:15 AM,19.4,10.4,68,30.01,10.0,South,5.8,-,N/A,,Clear,180,2012-12-11 14:15:00
8:35 AM,21.2,10.4,63,30.02,10.0,South,4.6,-,N/A,,Clear,180,2012-12-11 14:35:00
8:55 AM,23.0,12.2,63,30.02,10.0,Calm,Calm,-,N/A,,Clear,0,2012-12-11 14:55:00
9:15 AM,24.8,12.2,59,30.03,10.0,Calm,Calm,-,N/A,,Clear,0,2012-12-11 15:15:00
9:35 AM,28.4,15.8,59,30.03,10.0,SW,4.6,-,N/A,,Clear,220,2012-12-11 15:35:00
9:55 AM,30.2,15.8,55,30.03,10.0,SW,3.5,-,N/A,,Clear,230,2012-12-11 15:55:00
10:15 AM,32.0,15.8,51,30.03,10.0,West,3.5,-,N/A,,Clear,260,2012-12-11 16:15:00
10:35 AM,35.6,15.8,44,30.04,10.0,WSW,4.6,-,N/A,,Clear,250,2012-12-11 16:35:00
10:55 AM,37.4,17.6,45,30.04,10.0,WSW,10.4,-,N/A,,Clear,250,2012-12-11 16:55:00
11:15 AM,39.2,17.6,42,30.03,10.0,WSW,11.5,-,N/A,,Clear,250,2012-12-11 17:15:00
11:35 AM,39.2,15.8,39,30.03,10.0,West,12.7,18.4,N/A,,Clear,260,2012-12-11 17:35:00
11:55 AM,41.0,15.8,36,30.02,10.0,WSW,13.8,-,N/A,,Clear,250,2012-12-11 17:55:00
12:15 PM,42.8,14.0,31,30.01,10.0,West,11.5,17.3,N/A,,Clear,260,2012-12-11 18:15:00
12:35 PM,41.0,14.0,33,30.01,10.0,West,12.7,18.4,N/A,,Clear,270,2012-12-11 18:35:00
12:55 PM,42.8,14.0,31,30.01,10.0,WSW,13.8,-,N/A,,Clear,250,2012-12-11 18:55:00
1:15 PM,42.8,14.0,31,30.00,10.0,WSW,12.7,18.4,N/A,,Clear,240,2012-12-11 19:15:00
1:35 PM,42.8,14.0,31,30.00,10.0,SW,11.5,-,N/A,,Clear,230,2012-12-11 19:35:00
1:55 PM,42.8,14.0,31,29.99,10.0,WSW,10.4,18.4,N/A,,Clear,250,2012-12-11 19:55:00
2:15 PM,42.8,14.0,31,29.99,10.0,West,10.4,-,N/A,,Clear,270,2012-12-11 20:15:00
2:35 PM,42.8,14.0,31,29.98,10.0,WSW,9.2,16.1,N/A,,Clear,250,2012-12-11 20:35:00
2:55 PM,42.8,12.2,29,29.98,10.0,WSW,13.8,-,N/A,,Clear,250,2012-12-11 20:55:00
3:15 PM,42.8,12.2,29,29.98,10.0,WSW,12.7,-,N/A,,Scattered Clouds,250,2012-12-11 21:15:00
3:35 PM,42.8,12.2,29,29.98,10.0,WSW,15.0,20.7,N/A,,Scattered Clouds,250,2012-12-11 21:35:00
3:55 PM,42.8,14.0,31,29.99,10.0,WSW,9.2,-,N/A,,Scattered Clouds,250,2012-12-11 21:55:00
4:15 PM,41.0,14.0,33,29.99,10.0,WSW,9.2,-,N/A,,Clear,250,2012-12-11 22:15:00
4:35 PM,39.2,14.0,36,29.99,10.0,WSW,6.9,-,N/A,,Clear,240,2012-12-11 22:35:00
4:55 PM,35.6,14.0,41,30.00,10.0,SW,4.6,-,N/A,,Clear,230,2012-12-11 22:55:00
5:15 PM,33.8,12.2,41,30.00,10.0,SSW,3.5,-,N/A,,Clear,210,2012-12-11 23:15:00
5:35 PM,28.4,12.2,51,30.00,10.0,Calm,Calm,-,N/A,,Clear,0,2012-12-11 23:35:00
5:55 PM,28.4,12.2,51,30.00,10.0,Calm,Calm,-,N/A,,Clear,0,2012-12-11 23:55:00
6:15 PM,26.6,12.2,55,30.01,10.0,Calm,Calm,-,N/A,,Clear,0,2012-12-12 00:15:00
6:35 PM,24.8,12.2,59,30.01,10.0,Calm,Calm,-,N/A,,Clear,0,2012-12-12 00:35:00
6:55 PM,24.8,12.2,59,30.01,10.0,Calm,Calm,-,N/A,,Clear,0,2012-12-12 00:55:00
7:15 PM,24.8,12.2,59,30.01,10.0,Calm,Calm,-,N/A,,Clear,0,2012-12-12 01:15:00
7:35 PM,23.0,12.2,63,30.02,10.0,South,3.5,-,N/A,,Clear,180,2012-12-12 01:35:00
7:55 PM,24.8,14.0,64,30.03,10.0,South,4.6,-,N/A,,Clear,170,2012-12-12 01:55:00
8:15 PM,24.8,14.0,64,30.03,10.0,South,5.8,-,N/A,,Clear,170,2012-12-12 02:15:00
8:35 PM,24.8,15.8,69,30.03,10.0,SSE,4.6,-,N/A,,Clear,160,2012-12-12 02:35:00
8:55 PM,24.8,14.0,64,30.04,10.0,SSE,3.5,-,N/A,,Clear,160,2012-12-12 02:55:00
9:15 PM,21.2,14.0,74,30.04,10.0,Calm,Calm,-,N/A,,Clear,0,2012-12-12 03:15:00
9:35 PM,21.2,14.0,74,30.04,10.0,Calm,Calm,-,N/A,,Clear,0,2012-12-12 03:35:00
9:55 PM,23.0,14.0,68,30.05,10.0,Calm,Calm,-,N/A,,Clear,0,2012-12-12 03:55:00
10:15 PM,21.2,14.0,74,30.05,10.0,Calm,Calm,-,N/A,,Clear,0,2012-12-12 04:15:00
10:35 PM,21.2,14.0,74,30.05,10.0,Calm,Calm,-,N/A,,Clear,0,2012-12-12 04:35:00
10:55 PM,23.0,14.0,68,30.05,10.0,South,3.5,-,N/A,,Clear,170,2012-12-12 04:55:00
11:15 PM,23.0,14.0,68,30.05,10.0,South,3.5,-,N/A,,Clear,170,2012-12-12 05:15:00
11:35 PM,24.8,15.8,69,30.06,10.0,South,4.6,-,N/A,,Clear,170,2012-12-12 05:35:00
11:55 PM,24.8,15.8,69,30.06,10.0,South,5.8,-,N/A,,Clear,170,2012-12-12 05:55:00